Weather History for Key West, FL

Change the Weather History Date:

Friday, May 24, 2013

  Actual Average Record
Temperature  
Mean Temperature 83 °F 81 °F  
Max Temperature 88 °F 86 °F 92 °F (1873)
Min Temperature 78 °F 77 °F 68 °F (1900)
Degree Days  
Heating Degree Days 0 0  
Month to date heating degree days 0 0  
Since 1 July heating degree days 28 73  
Cooling Degree Days 18 16  
Month to date cooling degree days 368 358  
Year to date cooling degree days 1514 1312  
Growing Degree Days 33 (Base 50)    
Moisture  
Dew Point 73 °F    
Average Humidity 73    
Maximum Humidity 85    
Minimum Humidity 61    
Precipitation  
Precipitation 0.00 in 0.12 in 3.15 in (1937)
Month to date precipitation 4.63 2.04  
Year to date precipitation 10.58 9.67  
Snow  
Snow 0.00 in - - ()
Month to date snowfall 0.0  
Since 1 July snowfall 0.0  
Snow Depth 0.00 in    
Sea Level Pressure  
Sea Level Pressure 30.04 in    
Wind  
Wind Speed 6 mph (North)    
Max Wind Speed 12 mph    
Max Gust Speed 15 mph    
Visibility 10 miles    
Events      
T = Trace of Precipitation, MM = Missing Value Source: NWS Daily Summary

Daily Weather History Graph

Daily Weather History Graph

Search for Another Location

Airport:

Trip Planner

Search our weather history database for the weather conditions in past years. The results will help you decide how hot, cold, wet, or windy it might be!

Date:

Astronomy

May. 24, 2013 Rise Set
Actual Time 6:39 AM EDT 8:08 PM EDT
Civil Twilight 6:14 AM EDT 8:33 PM EDT
Nautical Twilight 5:44 AM EDT 9:03 PM EDT
Astronomical Twilight 5:13 AM EDT 9:34 PM EDT
Moon 7:51 PM EDT 6:05 AM EDT
Length of Visible Light 14h 18m
Length of Day
13h 28m
Full, 100% of the Moon is Illuminated
May 24
Full
May 25
Full
May 31
Last Quarter
Jun 8
New
Jun 16
First Quarter

Hourly Weather History & Observations

Time (EDT) Temp. Heat Index Dew Point Humidity Pressure Visibility Wind Dir Wind Speed Gust Speed Precip Events Conditions
12:53 AM 80.1 °F 83.8 °F 72.0 °F 76% 30.03 in 10.0 mi Calm Calm - N/A   Clear
1:53 AM 79.0 °F - 73.9 °F 84% 30.02 in 10.0 mi Calm Calm - N/A   Clear
2:53 AM 80.1 °F 84.2 °F 73.0 °F 79% 29.99 in 10.0 mi Calm Calm - N/A   Clear
3:53 AM 80.1 °F 84.2 °F 73.0 °F 79% 29.99 in 10.0 mi West 3.5 mph - N/A   Partly Cloudy
4:26 AM 78.8 °F - 73.4 °F 83% 30.00 in 10.0 mi Calm Calm - N/A   Mostly Cloudy
4:53 AM 80.1 °F 84.5 °F 73.9 °F 81% 30.00 in 10.0 mi Calm Calm - N/A   Mostly Cloudy
5:32 AM 80.6 °F 85.4 °F 73.4 °F 79% 30.00 in 10.0 mi NW 4.6 mph - N/A   Mostly Cloudy
5:53 AM 80.1 °F 84.2 °F 73.0 °F 79% 30.01 in 10.0 mi North 3.5 mph - N/A   Mostly Cloudy
6:17 AM 80.6 °F 85.4 °F 73.4 °F 79% 30.01 in 10.0 mi NNW 4.6 mph - N/A   Scattered Clouds
6:53 AM 79.0 °F - 72.0 °F 79% 30.03 in 10.0 mi North 6.9 mph - N/A   Partly Cloudy
7:24 AM 80.6 °F 84.6 °F 71.6 °F 74% 30.03 in 10.0 mi North 6.9 mph - N/A   Mostly Cloudy
7:31 AM 80.6 °F 84.6 °F 71.6 °F 74% 30.03 in 10.0 mi North 8.1 mph - N/A   Scattered Clouds
7:51 AM 80.6 °F 84.6 °F 71.6 °F 74% 30.04 in 10.0 mi NNW 8.1 mph - N/A   Mostly Cloudy
7:53 AM 81.0 °F 84.9 °F 71.1 °F 72% 30.04 in 10.0 mi North 8.1 mph - N/A   Mostly Cloudy
8:27 AM 82.4 °F 87.2 °F 71.6 °F 70% 30.05 in 10.0 mi NNW 6.9 mph - N/A   Mostly Cloudy
8:53 AM 81.0 °F 84.9 °F 71.1 °F 72% 30.06 in 10.0 mi North 9.2 mph - N/A   Partly Cloudy
9:53 AM 82.9 °F 87.5 °F 71.1 °F 67% 30.07 in 10.0 mi NNW 6.9 mph - N/A   Partly Cloudy
10:53 AM 84.0 °F 88.4 °F 70.0 °F 63% 30.08 in 10.0 mi North 8.1 mph - N/A   Clear
11:53 AM 84.9 °F 89.4 °F 70.0 °F 61% 30.09 in 10.0 mi North 9.2 mph - N/A   Clear
12:53 PM 84.9 °F 90.1 °F 71.1 °F 63% 30.08 in 10.0 mi NNW 9.2 mph - N/A   Clear
1:53 PM 86.0 °F 92.2 °F 72.0 °F 63% 30.07 in 10.0 mi North 9.2 mph - N/A   Clear
2:53 PM 86.0 °F 93.0 °F 73.0 °F 65% 30.06 in 10.0 mi NNE 8.1 mph - N/A   Clear
3:53 PM 88.0 °F 97.5 °F 75.0 °F 65% 30.04 in 10.0 mi Variable 5.8 mph - N/A   Clear
4:53 PM 86.0 °F 95.1 °F 75.0 °F 70% 30.03 in 10.0 mi NNW 9.2 mph - N/A   Clear
5:53 PM 86.0 °F 95.1 °F 75.0 °F 70% 30.03 in 10.0 mi North 6.9 mph - N/A   Partly Cloudy
6:53 PM 84.9 °F 93.3 °F 75.0 °F 72% 30.02 in 10.0 mi North 8.1 mph - N/A   Clear
7:53 PM 82.9 °F 89.4 °F 73.9 °F 74% 30.03 in 10.0 mi NNW 10.4 mph - N/A   Clear
8:53 PM 82.0 °F 87.4 °F 73.0 °F 74% 30.05 in 10.0 mi North 4.6 mph - N/A   Clear
9:53 PM 82.0 °F 87.4 °F 73.0 °F 74% 30.08 in 10.0 mi North 5.8 mph - N/A   Partly Cloudy
10:53 PM 82.0 °F 87.4 °F 73.0 °F 74% 30.08 in 10.0 mi North 8.1 mph - N/A   Clear
11:53 PM 81.0 °F 85.8 °F 73.0 °F 77% 30.07 in 10.0 mi North 6.9 mph - N/A   Clear